Regional Weather Roundup
Issued by NWS

Home | Current Version | Previous Version | Graphics & Text | Print | Product List | Glossary On
Versions: 1 2 3 4 5 6 7 8 9 10 11 12 13 14 15 16 17 18 19 20 21 22 23 24 25 26 27 28 29 30 31 32 33 34 35 36 37 38 39 40 41 42 43 44 45 46 47 48 49 50
000
ASUS43 KOAX 220402
RWRNE

WEATHER ROUNDUP FOR NEBRASKA
NATIONAL WEATHER SERVICE OMAHA NE
1000 PM CST FRI NOV 21 2014

NOTES: SATELLITE DATA IS BEING USED TO AUGMENT CLOUD COVER ABOVE
       12000 FEET.
       "FAIR" INDICATES FEW OR NO CLOUDS BELOW 12,000 FEET WITH NO
       SIGNIFICANT WEATHER AND/OR OBSTRUCTIONS TO VISIBILITY.

  * THESE STATIONS DO NOT REPORT WEATHER SUCH AS RAIN...SNOW OR FOG.

NEZ001>004-019>022-054>056-220500-
NEBRASKA PANHANDLE

CITY           SKY/WX    TMP DP  RH WIND       PRES   REMARKS
SCOTTSBLUFF    CLEAR     31  21  66 N7        29.89F WCI  24
ALLIANCE       CLEAR     23  16  74 SW5       29.88S WCI  17
CHADRON        CLEAR     26  23  88 VRB3      29.86F
SIDNEY         CLEAR     29  18  63 W8        29.92F WCI  21
$$

NEZ057>060-069>072-079>082-220500-
SOUTHWEST NEBRASKA

CITY           SKY/WX    TMP DP  RH WIND       PRES   REMARKS
NORTH PLATTE   CLEAR     34  28  79 S7        29.91S WCI  28
IMPERIAL       CLEAR     31  23  72 SW5       29.91S WCI  26
MCCOOK         CLEAR     38  34  85 S8        29.92F WCI  32
$$

NEZ005>010-023>029-035>040-094-220500-
NORTH CENTRAL NEBRASKA

CITY           SKY/WX    TMP DP  RH WIND       PRES   REMARKS
VALENTINE      CLEAR     29  25  85 SW7       29.85S WCI  22
BROKEN BOW     CLEAR     34  27  75 S6        29.91S WCI  29
ORD            CLEAR     36  31  82 S7        29.91R WCI  30
$$

NEZ041-046>049-061>064-073>077-083>087-220500-
SOUTH CENTRAL NEBRASKA

CITY           SKY/WX    TMP DP  RH WIND       PRES   REMARKS
GRAND ISLAND   PTCLDY    38  33  82 S12       29.94F WCI  30
HASTINGS       CLOUDY    37  34  89 S6        29.95F FOG     WCI  32
KEARNEY *      CLOUDY    36  28  75 SE12      29.95F WCI  27
YORK           CLOUDY    36  36 100 S9        29.98F FOG     WCI  29
$$

NEZ011>018-030>034-042>045-220500-
NORTHEAST NEBRASKA

CITY           SKY/WX    TMP DP  RH WIND       PRES   REMARKS
NORFOLK        MOCLDY    37  31  78 S9        29.92S WCI  30
COLUMBUS *     CLOUDY    37  34  87 S12       29.97S WCI  30
TEKAMAH        CLOUDY    38  33  82 S16       29.98F HAZE    WCI  29
$$

NEZ050>053-065>068-078-088>093-220500-
SOUTHEAST NEBRASKA

CITY           SKY/WX    TMP DP  RH WIND       PRES   REMARKS
LINCOLN        CLOUDY    37  34  89 S9        30.02F FOG     WCI  30
OMAHA EPPLEY   CLOUDY    36  34  92 S15       30.02F FOG     WCI  27
FALLS CITY     CLOUDY    35  34  96 SE5       30.03F FOG     WCI  31
$$

NEZ044-045-051>053-067-220500-
OMAHA AREA

CITY           SKY/WX    TMP DP  RH WIND       PRES   REMARKS
OMAHA EPPLEY   CLOUDY    36  34  92 S15       30.02F FOG     WCI  27
OFFUTT AFB     CLOUDY    35  34  94 SE8       30.00F FOG     WCI  29
$$



USA.gov is the U.S. government's official web portal to all federal, state and local government web resources and services.